{"data":{"norad_id":37841,"intl_designator":"2011-058D","name":"SRMSAT","alt_names":[],"object_type":"PAYLOAD","status":"ACTIVE","operator":null,"country":"IND","launch_date":"2011-10-12","launch_site_code":"SRILR","launch_vehicle":null,"mission":null,"orbit_class":"UNKNOWN","rcs_meters":0.2037,"size_class":null,"mass_kg":null,"dimensions":null,"purposes":["comms","earth_obs"],"wikipedia_slug":null,"has_3d_model":false,"image_url":null,"decayed_at":null,"tle_current":{"epoch":"2026-09-20T00:26:10.065984Z","epoch_age_seconds":56050,"freshness":"FRESH","line1":"1 37841U 11058D   26263.01817206  .00000357  00000+0  49981-4 0  9991","line2":"2 37841  19.9709 205.4664 0011868 166.7244 270.3270 14.11593351771235","mean_motion":14.11593351,"eccentricity":0.0011868,"inclination_deg":19.9709,"raan_deg":205.4664,"arg_perigee_deg":166.7244,"mean_anomaly_deg":270.327,"bstar":4.9981e-5,"rev_number":77123,"period_min":102.01238189312,"perigee_km":845.34140054954,"apogee_km":862.50742151477,"semimajor_km":7232.0614110322,"source":"CELESTRAK","updated_at":"2026-09-20T09:00:45.231895Z"}}}